Other Surface Observations
Issued by NWS

Home | Current Version | Previous Version | Text Only | Print | Product List | Glossary On
Versions: 1 2 3 4 5 6 7 8 9 10 11 12 13 14 15 16 17 18 19 20 21 22 23 24 25 26 27 28 29 30 31 32 33 34 35 36 37 38 39 40 41 42 43 44 45 46 47 48 49 50
000
SXUS52 KTAE 042018
OSOTAE
OSOTAE
North Florida/South Alabama/Southwest Georgia Weather Roundup
National Weather Service Tallahassee Florida
400 PM EDT MON MAY 04 2015

Note: "fair" indicates few or no clouds below 12,000 feet with no
significant weather and/or obstructions to visibility.

!FLZ017-115-028-034-025-042100
...North Florida...

CITY           SKY/WX    TMP DP  RH WIND       PRES   REMARKS
TALLAHASSEE    MOSUNNY   86  51  29 NE13G18   30.20F
APALACHICOLA   SUNNY     81  55  40 E12       30.22F
PERRY          PTSUNNY   84  55  36 NE9       30.20F
CROSS CITY       N/A     81  58  45 E12G22    30.19F
JACKSONVILLE   MOSUNNY   78  57  48 E18       30.25F
$$

!FLZ112-006-005-002-011-042100
...Florida Panhandle...

CITY           SKY/WX    TMP DP  RH WIND       PRES   REMARKS
MARIANNA       SUNNY     83  47  28 E8        30.20F
BONIFAY        NOT AVBL
PANAMA CITY NW FAIR      80  64  58 S13       30.19F
TYNDALL AFB    MOSUNNY   78  64  61 S16       30.19F
TYND DRONE APT MOCLDY    78  66  65 S13G20    30.19F
DE FUNIAK SPR  FAIR      81  49  32 E8        30.22S
EGLIN AFB      MOSUNNY   80  63  56 SW8       30.20F
DESTIN         SUNNY     80  66  62 S6        30.20F
HURLBURT       SUNNY     79  63  57 S10       30.19F
CRESTVIEW      MOSUNNY   85  53  33 NE9       30.21F
PENSACOLA      SUNNY     80  60  50 S15       30.20F
$$

!ALZ063-066-042100
...South Alabama...

CITY           SKY/WX    TMP DP  RH WIND       PRES   REMARKS
DOTHAN         MOSUNNY   83  48  29 NE13      30.26F
OZARK CAIRNS   SUNNY     83  48  29 E14       30.21F
FT RUCKER HELI MOSUNNY   81  51  35 VRB5      30.21F
RUCKER HELI 3  FAIR      82  50  32 NE12      30.23F
RUCKER HELI 2  FAIR      83  47  28 SE7       30.21F
FLORALA APT    MOSUNNY   82  52  35 VRB6      30.22F
ANDALUSIA      PTSUNNY   87  51  28 VRB6      30.21F
TROY           PTSUNNY   80  54  40 E5        30.23F
EUFALA         FAIR      85  52  32 S6        30.22F
MOBILE         MOSUNNY   83  58  42 SE14G23   30.20F
$$

!GAZ120>161-042100
...Southwest and South Central Georgia...

CITY           SKY/WX    TMP DP  RH WIND       PRES   REMARKS
THOMASVILLE    PTSUNNY   81  52  36 E8        30.23S
BAINBRIDGE     SUNNY     86  50  28 E8        30.22F
MOODY AFB      PTSUNNY   79  55  43 E10G20    30.21F
VALDOSTA       MOSUNNY   83  55  38 E12G17    30.21F
MOULTRIE       MOSUNNY   81  50  34 E3        30.23F
BLAKELY        MOSUNNY   84  46  26 E5G16     30.23F
ALBANY         MOSUNNY   84  48  28 E12G18    30.25F
TIFTON         PTSUNNY   80  48  32 SE5       30.23F
FITZGERALD     MOCLDY    83  49  31 E9        30.27F
CORDELE        FAIR      83  47  27 E3        30.26F
AMERICUS       MOCLDY    81  50  34 E8        30.27F
HOMERVILLE     FAIR      81  55  41 E7G16     30.24F
$$

!GMZ750-755-770-775-042100
...Coastal and Buoy Obs...

STATION/POSITION TIME  TEMP    WIND        PRES    VSBY  WAVE
                       AIR SEA DIR/SP/G                  HT/PER
                 (UTC) (F)     (DEG/KT/KT) (MB)    (MI)  (FT/S)
KEATON BEACH     2000   76     280/  8/ 11 1022.2F
CEDAR KEY        2000   77      60/ 18/ 21 1022.3F
C TOWER          2000   72      60/  9/ 11 1023.0F
APALACHICOLA BUO 1950   74 75   70/ 12/ 14 1022.2F         4/ 7
PANAMA CITY BUOY 1950   74 75  100/ 14/ 17 1022.7S         5/ 7
MOBILE BUOY      1950   76 76  120/ 17/ 21 1022.4F         6/ 6
ORANGE BCH AL BU 1950   74 75  120/ 14/ 16 1022.1F         5/ 7
$$



USA.gov is the U.S. government's official web portal to all federal, state and local government web resources and services.